Home   Weather   Bambari   Past weeks

Flag for Central African Republic Past Weather in Bambari, Central African Republic — Yesterday and Last 2 Weeks

Now
75 °F

Sunny.


Feels Like: 74 °F
Forecast: 67 / 80 °F
Wind: No wind

Location: Bangui Airport

Current Time: Jul 23, 2017 at 7:54:38 am

Latest Report: Jul 23, 2017 at 6:00 am


Visibility: 10 mi

Pressure: 29.92 "Hg

Humidity: 94%

Dew Point: 73 °F

Location of BambariLocation

Past Weather in Bambari — Graph

°F

Bambari Temperature Yesterday

Maximum temperature yesterday: 91 °F (at 1:00 pm)
Minimum temperature yesterday: 73 °F (at 4:00 am)
Average temperature yesterday: 82 °F

High & Low Weather Summary for the Past Weeks

 TemperatureHumidityPressure
High93 °F (Jul 19, 3:00 pm)100% (Jul 8, 6:00 am)30.07 "Hg (Jul 8, 6:00 am)
Low68 °F (Jul 15, 6:00 am)52% (Jul 15, 3:00 pm)29.80 "Hg (Jul 16, 3:00 pm)
Average78 °F85%29.93 "Hg
* Reported Jul 8 6:00 am — Jul 23 6:00 am, Bambari. Weather by CustomWeather, © 2017

Note: Actual official high and low records may vary slightly from our data, if they occured in-between our weather recording intervals... More about our weather records

Advertising

Bambari Weather History for the Previous 24 Hours

Scroll right to see more
 ConditionsComfort  
Time TempWeatherWind HumidityBarometerVisibility
6:00 am
Sun, Jul 23
75 °FSunny.No wind94%29.92 "Hg10 mi
5:00 am75 °FClear.2 mph94%29.89 "Hg10 mi
4:00 am77 °FClear.3 mph94%29.86 "Hg10 mi
3:00 am77 °FClear.2 mph94%29.89 "Hg10 mi
2:00 am77 °FClear.No wind94%29.89 "Hg10 mi
1:00 am77 °FClear.No wind94%29.89 "Hg10 mi
12:00 am77 °FClear.No wind94%29.92 "Hg10 mi
11:00 pm
Sat, Jul 22
79 °FClear.No wind89%29.92 "Hg10 mi
10:00 pm79 °FClear.2 mph89%29.92 "Hg10 mi
9:00 pm81 °FClear.No wind89%29.89 "Hg5 mi
8:00 pm81 °FClear.2 mph89%29.89 "Hg5 mi
7:00 pm81 °FPassing clouds.2 mph84%29.86 "HgN/A
6:00 pm84 °FPassing clouds.5 mph74%29.83 "HgN/A
5:00 pm86 °FScattered clouds.2 mph70%29.83 "HgN/A
4:00 pm88 °FPartly sunny.5 mph66%29.83 "HgN/A
3:00 pm91 °FPartly sunny.5 mph56%29.83 "HgN/A
2:00 pm91 °FPartly sunny.2 mph56%29.86 "HgN/A
1:00 pm91 °FPartly sunny.6 mph56%29.89 "HgN/A
12:00 pm90 °FPartly sunny.5 mph59%29.89 "HgN/A
11:00 am88 °FScattered clouds.2 mph66%29.92 "HgN/A
10:00 am84 °FScattered clouds.7 mph74%29.95 "HgN/A
9:00 am82 °FPassing clouds.5 mph79%29.95 "HgN/A
8:00 am77 °FPassing clouds.No wind89%29.92 "HgN/A
7:00 am75 °FScattered clouds.No wind94%29.92 "Hg5 mi
Weather by CustomWeather, © 2017

See weather overviewHow to use our weather pages